When you browse on this site, cookies collect data to enhance your experience and personalize the content and advertising you see.
Visit our Privacy Policy to learn more. By continuing to use the site, you agree to this use of cookies and data.
  • In Hungary
  • List of Countries
  • For 7 days
  • Water Temperature
  • Satellite Maps
  • Weather Map
  • News
  • Weather Widgets
  • user-avatar
    Login

    Hourly Weather Tena

    Today, 14 December, Friday

    Time Temperature Precipitation Wind Pressure Humidity
    00:00 +23°C° 0 mm 1 mps 707 mmHg 74%
    01:00 +22°C° 0 mm 1 mps 707 mmHg 72%
    02:00 +22°C° 0 mm 1 mps 707 mmHg 72%
    03:00 +22°C° 0 mm 1 mps 707 mmHg 71%
    04:00 +22°C° 0 mm 1 mps 706 mmHg 70%
    05:00 +23°C° 0 mm 1 mps 707 mmHg 69%
    06:00 +23°C° 0 mm 1 mps 707 mmHg 68%
    07:00 +24°C° 0 mm 1 mps 707 mmHg 67%
    08:00 +26°C° 0 mm 1 mps 708 mmHg 60%
    09:00 +29°C° 0 mm 1 mps 708 mmHg 52%
    10:00 +31°C° 0 mm 1 mps 709 mmHg 45%
    11:00 +32°C° 0 mm 1 mps 708 mmHg 44%
    12:00 +34°C° 0 mm 2 mps 708 mmHg 43%
    13:00 +34°C° 0 mm 2 mps 707 mmHg 43%
    14:00 +34°C° 0 mm 2 mps 707 mmHg 44%
    15:00 +34°C° 0 mm 2 mps 706 mmHg 45%
    16:00 +34°C° 0 mm 2 mps 706 mmHg 46%
    17:00 +30°C° 0.1 mm 1 mps 706 mmHg 56%
    18:00 +28°C° 0.1 mm 1 mps 706 mmHg 66%
    19:00 +25°C° 0.1 mm 1 mps 706 mmHg 76%
    20:00 +25°C° 0.1 mm 1 mps 706 mmHg 77%
    21:00 +24°C° 0.1 mm 1 mps 707 mmHg 78%
    22:00 +24°C° 0.1 mm 1 mps 707 mmHg 79%
    23:00 +24°C° 0.1 mm 1 mps 707 mmHg 78%

    Tomorrow, 15 December, Saturday

    Time Temperature Precipitation Wind Pressure Humidity
    00:00 +23°C° 0.1 mm 1 mps 707 mmHg 77%
    01:00 +23°C° 0.1 mm 1 mps 707 mmHg 76%
    02:00 +23°C° 0.1 mm 1 mps 707 mmHg 76%
    03:00 +23°C° 0.1 mm 1 mps 706 mmHg 76%
    04:00 +22°C° 0.1 mm 1 mps 706 mmHg 76%
    05:00 +23°C° 0.1 mm 1 mps 707 mmHg 74%
    06:00 +23°C° 0.1 mm 1 mps 707 mmHg 73%
    07:00 +24°C° 0.1 mm 1 mps 707 mmHg 71%
    08:00 +26°C° 0 mm 1 mps 708 mmHg 64%
    09:00 +28°C° 0 mm 1 mps 708 mmHg 56%
    10:00 +31°C° 0 mm 2 mps 709 mmHg 49%
    11:00 +32°C° 0 mm 2 mps 708 mmHg 47%
    12:00 +34°C° 0 mm 2 mps 708 mmHg 44%
    13:00 +35°C° 0 mm 2 mps 707 mmHg 42%
    14:00 +34°C° 0.1 mm 2 mps 706 mmHg 46%
    15:00 +32°C° 0.1 mm 2 mps 706 mmHg 51%
    16:00 +32°C° 0.1 mm 2 mps 705 mmHg 55%
    17:00 +29°C° 1.4 mm 1 mps 705 mmHg 68%
    18:00 +27°C° 1.4 mm 1 mps 705 mmHg 80%
    19:00 +22°C° 1.4 mm 0 mps 705 mmHg 93%
    20:00 +24°C° 1.1 mm 1 mps 706 mmHg 92%
    21:00 +24°C° 1.1 mm 1 mps 707 mmHg 92%
    22:00 +24°C° 1.1 mm 1 mps 708 mmHg 91%
    23:00 +23°C° 0.3 mm 1 mps 708 mmHg 90%

    Day after tomorrow, 16 December, Sunday

    Time Temperature Precipitation Wind Pressure Humidity
    00:00 +23°C° 0.3 mm 1 mps 707 mmHg 88%
    01:00 +23°C° 0.3 mm 1 mps 707 mmHg 87%
    02:00 +23°C° 0.1 mm 1 mps 707 mmHg 86%
    03:00 +23°C° 0.1 mm 1 mps 707 mmHg 85%
    04:00 +23°C° 0.1 mm 1 mps 706 mmHg 84%
    05:00 +21°C° 0.1 mm 0 mps 707 mmHg 83%
    06:00 +21°C° 0.1 mm 0 mps 707 mmHg 82%
    07:00 +22°C° 0.1 mm 0 mps 708 mmHg 80%
    08:00 +26°C° 0 mm 1 mps 708 mmHg 72%
    09:00 +28°C° 0 mm 1 mps 709 mmHg 64%
    10:00 +30°C° 0 mm 1 mps 709 mmHg 56%
    11:00 +31°C° 0.1 mm 1 mps 709 mmHg 53%
    12:00 +32°C° 0.1 mm 1 mps 708 mmHg 50%
    13:00 +34°C° 0.1 mm 2 mps 707 mmHg 47%
    14:00 +32°C° 0.2 mm 2 mps 706 mmHg 49%
    15:00 +32°C° 0.2 mm 1 mps 706 mmHg 51%
    16:00 +32°C° 0.2 mm 1 mps 705 mmHg 53%
    17:00 +29°C° 0.1 mm 1 mps 705 mmHg 63%
    18:00 +27°C° 0.1 mm 1 mps 705 mmHg 72%
    19:00 +25°C° 0.1 mm 1 mps 705 mmHg 81%
    20:00 +24°C° 0.7 mm 1 mps 706 mmHg 83%
    21:00 +24°C° 0.7 mm 1 mps 707 mmHg 85%
    22:00 +23°C° 0.7 mm 1 mps 707 mmHg 87%
    23:00 +23°C° 0.6 mm 1 mps 707 mmHg 87%

    17 December, Monday

    Time Temperature Precipitation Wind Pressure Humidity
    00:00 +23°C° 0.6 mm 1 mps 707 mmHg 86%
    01:00 +23°C° 0.6 mm 1 mps 706 mmHg 85%
    02:00 +23°C° 0.3 mm 1 mps 706 mmHg 85%
    03:00 +23°C° 0.3 mm 1 mps 706 mmHg 84%
    04:00 +23°C° 0.3 mm 1 mps 706 mmHg 83%
    05:00 +23°C° 0.1 mm 1 mps 706 mmHg 82%
    06:00 +22°C° 0.1 mm 0 mps 707 mmHg 80%
    07:00 +22°C° 0.1 mm 0 mps 707 mmHg 78%
    08:00 +26°C° 0.1 mm 1 mps 708 mmHg 71%
    09:00 +29°C° 0.1 mm 1 mps 708 mmHg 63%
    10:00 +31°C° 0.1 mm 1 mps 709 mmHg 56%
    11:00 +31°C° 0.2 mm 1 mps 708 mmHg 57%
    12:00 +31°C° 0.2 mm 1 mps 707 mmHg 58%
    13:00 +32°C° 0.2 mm 2 mps 706 mmHg 59%
    14:00 +31°C° 0.6 mm 2 mps 705 mmHg 65%
    15:00 +30°C° 0.6 mm 1 mps 705 mmHg 72%
    16:00 +29°C° 0.6 mm 1 mps 704 mmHg 78%
    17:00 +28°C° 0.8 mm 1 mps 704 mmHg 84%
    18:00 +26°C° 0.8 mm 1 mps 705 mmHg 90%
    19:00 +22°C° 0.8 mm 0 mps 705 mmHg 96%
    20:00 +22°C° 0.8 mm 0 mps 706 mmHg 96%
    21:00 +24°C° 0.8 mm 1 mps 706 mmHg 95%
    22:00 +24°C° 0.8 mm 1 mps 707 mmHg 94%
    23:00 +24°C° 0.5 mm 1 mps 706 mmHg 93%

    18 December, Tuesday

    Time Temperature Precipitation Wind Pressure Humidity
    00:00 +23°C° 0.5 mm 1 mps 706 mmHg 92%
    01:00 +23°C° 0.5 mm 1 mps 706 mmHg 91%
    02:00 +23°C° 0.5 mm 1 mps 705 mmHg 90%
    03:00 +23°C° 0.5 mm 1 mps 705 mmHg 90%
    04:00 +23°C° 0.5 mm 1 mps 705 mmHg 89%
    05:00 +23°C° 0.4 mm 1 mps 706 mmHg 88%
    06:00 +24°C° 0.4 mm 1 mps 706 mmHg 86%
    07:00 +22°C° 0.4 mm 0 mps 707 mmHg 85%
    08:00 +25°C° 0.5 mm 1 mps 707 mmHg 82%
    09:00 +26°C° 0.5 mm 1 mps 707 mmHg 79%
    10:00 +27°C° 0.5 mm 1 mps 708 mmHg 75%
    11:00 +28°C° 0.3 mm 1 mps 707 mmHg 71%
    12:00 +29°C° 0.3 mm 1 mps 706 mmHg 68%
    13:00 +30°C° 0.3 mm 1 mps 706 mmHg 64%
    14:00 +30°C° 0.2 mm 1 mps 705 mmHg 65%
    15:00 +30°C° 0.2 mm 1 mps 705 mmHg 66%
    16:00 +30°C° 0.2 mm 1 mps 704 mmHg 67%
    17:00 +28°C° 1 mm 1 mps 704 mmHg 76%
    18:00 +26°C° 1 mm 1 mps 705 mmHg 85%
    19:00 +22°C° 1 mm 0 mps 705 mmHg 95%
    20:00 +22°C° 1.3 mm 0 mps 706 mmHg 95%
    21:00 +22°C° 1.3 mm 0 mps 706 mmHg 94%
    22:00 +24°C° 1.3 mm 1 mps 707 mmHg 94%
    23:00 +24°C° 0.8 mm 1 mps 707 mmHg 93%

    19 December, Wednesday

    Time Temperature Precipitation Wind Pressure Humidity
    00:00 +24°C° 0.8 mm 1 mps 706 mmHg 92%
    01:00 +23°C° 0.8 mm 1 mps 706 mmHg 91%
    02:00 +23°C° 0.3 mm 1 mps 706 mmHg 91%
    03:00 +23°C° 0.3 mm 1 mps 705 mmHg 90%
    04:00 +23°C° 0.3 mm 1 mps 705 mmHg 90%
    05:00 +21°C° 0.1 mm 0 mps 706 mmHg 88%
    06:00 +21°C° 0.1 mm 0 mps 706 mmHg 87%
    07:00 +22°C° 0.1 mm 0 mps 707 mmHg 86%
    08:00 +23°C° 0.2 mm 0 mps 707 mmHg 81%
    09:00 +26°C° 0.2 mm 1 mps 708 mmHg 77%
    10:00 +27°C° 0.2 mm 1 mps 708 mmHg 72%
    11:00 +28°C° 0.1 mm 1 mps 707 mmHg 70%
    12:00 +29°C° 0.1 mm 1 mps 707 mmHg 68%
    13:00 +29°C° 0.1 mm 1 mps 706 mmHg 66%
    14:00 +29°C° 0.2 mm 1 mps 705 mmHg 66%
    15:00 +29°C° 0.2 mm 1 mps 705 mmHg 66%
    16:00 +29°C° 0.2 mm 1 mps 704 mmHg 65%
    17:00 +27°C° 0.6 mm 1 mps 705 mmHg 75%
    18:00 +26°C° 0.6 mm 1 mps 705 mmHg 84%
    19:00 +22°C° 0.6 mm 0 mps 706 mmHg 94%
    20:00 +22°C° 0.8 mm 0 mps 706 mmHg 93%
    21:00 +22°C° 0.8 mm 0 mps 706 mmHg 93%
    22:00 +21°C° 0.8 mm 0 mps 707 mmHg 93%
    23:00 +21°C° 0.5 mm 0 mps 707 mmHg 92%
    Show more